#timestamp,LO_Frequency,Hit,StdDev 
1643086815.6,286047001.0,N
1643086835.4,286046999.9,N
1643086855.2,286046998.1,N
1643086875.1,286047000.9,N
1643086876.0,286047000.9,N
1643086895.8,286047001.2,N
1643086915.7,286047001.2,N
1643086935.5,286047000.6,N
1643086955.3,286046998.5,N
1643086975.2,286046998.8,N
1643086995.0,286046999.6,N
1643086995.9,286046999.6,N
1643087015.7,286046999.0,N
1643087035.6,286046998.1,N
1643087055.4,286047000.3,N
1643087075.3,286047001.0,N
1643087095.1,286047000.9,N
1643087096.0,286047000.9,N
1643087115.8,286047000.3,N
1643087135.7,286047000.7,N
1643087155.5,286046998.7,N
1643087175.3,286047000.7,N
1643087195.2,286047001.0,N
1643087215.0,286046998.7,N
1643087215.9,286046998.7,N
1643087235.8,286046998.6,N
1643087255.6,286047000.7,N
1643087275.4,286046999.7,N
1643087295.3,286046999.8,N
1643087315.1,286047002.6,N
1643087335.9,286047002.4,N
1643087355.7,286047002.4,N
1643087375.5,286047000.7,N
1643087395.8,286046999.9,N
1643087415.6,286047000.1,N
1643087435.5,286047000.8,N
1643087485.4,286046998.9,E
1643087495.3,286046998.3,N
1643087515.1,286047001.2,P
1643087535.8,286046998.2,N
1643087555.7,286046998.6,N
1643087575.5,286046999.0,N
1643087595.4,286046997.0,N
1643087615.2,286046999.3,N
1643087635.0,286046998.1,N
1643087635.9,286046998.1,N
1643087655.8,286046999.8,N
1643087675.6,286046999.7,N
1643087695.4,286047000.5,N
1643087715.3,286047000.7,N
1643087735.1,286047000.4,N
1643087755.9,286047002.8,N
1643087775.7,286047000.4,N
1643087795.5,286047002.1,N
1643087815.4,286047001.5,N
1643087835.2,286047000.2,N
1643087855.0,286046999.8,N
1643087856.0,286046999.8,N
1643087875.8,286047002.6,N
1643087895.6,286047002.4,N
1643087915.5,286047001.1,N
1643087935.3,286047000.0,N
1643087955.1,286047002.8,N
1643087975.9,286047002.9,N
1643087995.7,286047004.3,N
1643088015.6,286047001.4,N
1643088035.4,286047001.8,N
1643088055.2,286047004.0,N
1643088075.1,286047001.5,N
1643088076.0,286047001.5,N
1643088095.8,286047004.3,N
1643088115.6,286047004.2,N
1643088135.5,286047004.2,N
1643088155.3,286047002.9,N
1643088175.2,286047001.9,N
1643088195.9,286047002.6,N
1643088215.7,286047002.7,N
1643088235.6,286047002.5,N
1643088255.4,286047001.6,N
1643088275.2,286047002.3,N
1643088295.1,286047001.6,N
1643088296.0,286047001.6,N
1643088315.8,286047004.4,Y
1643088335.7,286047000.2,P
1643088355.5,286047000.4,N
1643088375.3,286046999.9,N
1643088395.2,286047002.3,N
1643088415.0,286047000.9,N
1643088415.9,286047000.9,N
1643088435.8,286047002.8,Y
1643088455.6,286046998.8,P
1643088475.4,286046996.8,N
1643088495.3,286046996.7,N
1643088515.1,286046996.8,N
1643088535.8,286046996.5,N
1643088555.7,286046996.8,N
1643088575.5,286046996.7,N
1643088595.4,286046997.4,N
1643088615.2,286046996.6,N
1643088635.0,286046999.4,N
1643088635.9,286046999.4,N
1643088655.8,286046998.5,N
1643088675.6,286046998.8,N
1643088695.4,286046999.3,N
1643088715.3,286046996.5,N
1643088735.1,286046999.1,N
1643088755.9,286046998.8,N
1643088775.7,286046998.4,N
1643088795.5,286046999.0,N
1643088815.4,286046999.6,N
1643088835.2,286046999.5,N
1643088855.1,286046998.3,N
1643088856.0,286046998.3,N
1643088875.8,286047000.4,N
1643088895.6,286047000.6,N
1643088915.5,286047000.5,N
1643088935.3,286046998.5,N
1643088955.1,286046998.2,N
1643088975.9,286047000.7,N
1643088995.7,286046998.4,N
1643089015.6,286047001.2,N
1643089035.4,286047000.6,N
1643089055.2,286046998.6,N
1643089075.1,286046999.1,N
1643089076.0,286046999.1,N
1643089095.8,286046998.7,N
1643089115.7,286046998.3,N
1643089135.5,286046998.7,N
1643089155.3,286046998.3,N
1643089175.2,286046998.9,N
1643089195.0,286047001.1,N
1643089195.9,286047001.1,N
1643089215.8,286046998.6,N
1643089235.6,286046999.0,N
1643089255.4,286046996.6,Y
1643089275.3,286047001.2,P
1643089295.1,286046999.4,N
1643089315.9,286046998.9,N
1643089335.7,286046999.4,N
1643089355.5,286046999.6,N
1643089375.4,286046996.7,Y
1643089395.2,286046999.1,P
1643089415.1,286046998.4,P
1643089416.0,286046998.4,P
1643089435.8,286047000.7,N
1643089455.6,286046998.3,N
1643089475.5,286046998.8,N
1643089495.3,286046998.4,N
1643089515.2,286046998.7,N
1643089535.9,286046998.7,N
1643089555.7,286046999.5,N
1643089575.6,286046996.8,Y
1643089595.4,286046999.6,P
1643089615.2,286046999.1,N
1643089635.1,286046998.2,P
1643089636.0,286046998.2,Y
1643089655.8,286047002.5,P
1643089675.7,286046999.9,N
1643089695.5,286047002.8,N
1643089715.4,286047002.8,N
1643089735.2,286047002.8,N
1643089755.0,286047002.8,N
1643089755.9,286047002.8,N
1643089775.8,286047000.8,N
1643089795.6,286046998.5,N
1643089815.5,286046998.9,N
1643089835.3,286047001.1,N
1643089855.1,286046999.5,N
1643089875.9,286046998.5,N
1643089895.7,286047000.0,N
1643089915.5,286047000.2,N
1643089935.4,286047002.8,N
1643089955.2,286047001.5,N
1643089975.1,286047001.3,N
1643089976.0,286047001.3,N
1643089995.8,286047001.9,N
1643090015.6,286047004.0,N
1643090035.5,286047002.0,N
1643090055.3,286047002.1,N
1643090075.1,286047002.8,N
1643090095.9,286047002.3,N
1643090115.7,286047002.8,N
1643090135.6,286047001.4,N
1643090155.4,286047002.5,N
1643090175.2,286047002.5,N
1643090195.1,286047003.8,N
1643090196.0,286047003.8,N
1643090215.8,286047002.7,N
1643090235.7,286047000.0,N
1643090255.5,286046999.9,N
1643090275.3,286047002.8,N
1643090295.2,286047002.5,N
1643090315.0,286047002.5,N
1643090315.9,286047002.5,N
1643090335.7,286047004.1,N
1643090355.6,286047003.2,N
1643090375.4,286047003.6,N
1643090395.3,286047004.0,N
